Torna al catalogo

COSMOS 2251 DEB

AttivoLEO
NORAD 35784·DEBRIS·🇷🇺 Russia

Lanciato Jun 16, 1993 da Plesetsk Cosmodrome

Loading…

Prossimi Passaggi (prossime 24 ore)

TLE

In scadenzaSource: Space-Track

Epoca: Sep 9, 2026, 11:22 UTC

1 35784U 93036ASE 26252.47389222  .00000431  00000-0  11618-3 0  9990
2 35784  74.0373 301.0983 0041260   0.5352 359.5845 14.50524007696317

Traccia COSMOS 2251 DEB in tempo reale con AllMySat

Download on the App Store